Simultaneous Nadir Overpasses (SNOs) Predictions

Prediction of SNOs between AURA and NPP Satellite Orbit:

Table of predicted SNOs for the next 14.0 days since TLE Epoch: 11/6/2015
Index Date (AURA) Time (AURA) Lat,Lon (AURA) SZA (AURA ) Date (NPP) Time (NPP) Lat,Lon (NPP) SZA (NPP ) Distance(km) Time Diff (sec)
1 11/09/2015 01:13:12 -78.92,-125.16 71.15 11/09/2015 01:12:13 -78.93,-125.10 71.11 1.47 59
2 11/09/2015 02:02:28 79.31, 44.87 108.37 11/09/2015 02:02:46 79.32, 45.01 108.33 2.96 18
3 11/11/2015 17:29:34 -79.05, -8.52 70.56 11/11/2015 17:29:05 -79.05, -8.50 70.54 0.33 29
4 11/11/2015 18:18:51 79.39, 161.30 109.01 11/11/2015 18:19:39 79.40, 161.38 108.96 1.83 48
5 11/14/2015 08:58:39 72.93, -80.79 116.59 11/14/2015 08:57:26 73.16, -82.28 116.95 54.60 73
6 11/14/2015
